• Join FlightAware (Why Join?)
  • Login
  • US Flag 
12:42PM EST


 

Airport Tracker/Info


-or-


 

Live Flight TrackerFlight Track Log ✈ UAL4236 ✈ 11-Apr-2013 ✈ KBHM - KIAH

Flight Track Log - Related Links

Times and Time Zones

All times are in EDT time to prevent confusion due to time zone crossing. See the UAL4236 flight status page for this flight to view local times or setup timezone preferences in your user account.

Time Position Orientation Groundspeed Altitude Reporting Facility
EDT Latitude Longitude Course Direction KTS MPH feet Rate Location/Type
07:41AM 33.5531 -86.7733 231° Southwest 175 201 1,200  Level Atlanta Center
07:43AM 33.5228 -86.8272 236° Southwest 179 206 3,800 1,800 Climbing Atlanta Center
07:44AM 33.4839 -86.8856 231° Southwest 198 228 5,400 1,980 Climbing Atlanta Center
07:45AM 33.3316 -87.0725 230° Southwest  Level FlightAware Approximate
07:45AM 33.4406 -86.9439 228° Southwest 227 261 7,800  Level Atlanta Center
07:46AM 33.2761 -87.1525 231° Southwest  Level FlightAware Approximate
07:46AM 33.3975 -87.0072 231° Southwest 237 273 9,700  Level Atlanta Center
07:47AM 33.3539 -87.0778 234° Southwest 256 295 11,100 1,200 Climbing Atlanta Center
07:48AM 33.3000 -87.1481 227° Southwest 280 322 12,100 1,140 Climbing Atlanta Center
07:49AM 33.2458 -87.2306 232° Southwest 299 344 13,400 1,200 Climbing Atlanta Center
07:50AM 33.1894 -87.3103 230° Southwest 311 358 14,600 1,200 Climbing Atlanta Center
07:51AM 33.1328 -87.3950 231° Southwest 322 371 15,800 1,260 Climbing Atlanta Center
07:52AM 33.0742 -87.4794 230° Southwest 327 376 17,200 1,260 Climbing Atlanta Center
07:53AM 32.9533 -87.6464 229° Southwest 326 375 19,600 1,200 Climbing Memphis Center
07:54AM 32.8925 -87.7322 230° Southwest 338 389 20,700 1,140 Climbing Memphis Center
07:55AM 32.8317 -87.8183 230° Southwest 343 395 21,900 1,020 Climbing Memphis Center
07:56AM 32.7811 -87.8889 230° Southwest 343 395 22,800 1,020 Climbing Memphis Center
07:57AM 32.7200 -87.9794 231° Southwest 343 395 24,000 1,200 Climbing Memphis Center
07:58AM 32.6803 -88.0842 246° West 338 389 25,200 1,140 Climbing Memphis Center
07:59AM 32.6489 -88.1911 251° West 338 389 26,300 1,020 Climbing Memphis Center
08:00AM 32.6153 -88.2978 250° West 343 395 27,300 840 Climbing Memphis Center
08:01AM 32.5833 -88.4022 250° West 348 400 28,000 660 Climbing Memphis Center
08:02AM 32.5517 -88.5139 251° West 353 406 28,700 1,140 Climbing Memphis Center
08:03AM 32.5178 -88.6203 249° West 353 406 30,300 1,440 Climbing Memphis Center
08:04AM 32.4858 -88.7269 250° West 347 399 31,600 1,200 Climbing Memphis Center
08:05AM 32.4539 -88.8308 250° West 347 399 32,800 1,140 Climbing Memphis Center
08:06AM 32.4217 -88.9347 250° West 342 394 33,900 600 Climbing Memphis Center
08:07AM 32.3894 -89.0411 250° West 342 394 34,000 240 Climbing Memphis Center
08:08AM 32.3531 -89.1547 249° West 356 410 34,400 900 Climbing Memphis Center
08:09AM 32.3183 -89.2633 249° West 362 417 35,900 780 Climbing Memphis Center
08:10AM 32.2839 -89.3744 250° West 362 417 36,000  Climbing Memphis Center
08:11AM 32.2492 -89.4853 250° West 362 417 36,000  Level Memphis Center
08:12AM 32.2125 -89.6011 250° West 369 425 36,000  Level Memphis Center
08:13AM 32.1756 -89.7217 250° West 375 432 36,000  Level Memphis Center
08:14AM 32.1383 -89.8347 249° West 375 432 36,000  Level Memphis Center
08:15AM 32.1014 -89.9503 249° West 375 432 36,000  Level Memphis Center
08:16AM 32.0642 -90.0656 249° West 375 432 36,000  Level Memphis Center
08:17AM 32.0267 -90.1833 249° West 375 432 36,000  Level Memphis Center
08:18AM 31.9892 -90.2961 249° West 375 432 36,000  Level Memphis Center
08:20AM 31.9219 -90.5131 250° West 363 418 36,000 -60 Level Houston Center
08:21AM 31.8861 -90.6194 248° West 354 407 35,900  Descending Houston Center
08:22AM 31.8517 -90.7267 249° West 353 406 36,000  Climbing Houston Center
08:23AM 31.8139 -90.8444 249° West 352 405 36,000  Level Houston Center
08:25AM 31.7750 -90.9633 249° West 354 407 36,000  Level Houston Center
08:26AM 31.7389 -91.0711 249° West 355 409 36,000  Level Houston Center
08:27AM 31.7058 -91.1717 249° West 363 418 36,000  Level Houston Center
08:28AM 31.6611 -91.3064 249° West 370 426 36,000  Level Houston Center
08:29AM 31.6236 -91.4186 249° West 370 426 36,000  Level Houston Center
08:30AM 31.5881 -91.5247 249° West 352 405 36,000  Level Houston Center
08:31AM 31.5544 -91.6258 249° West 335 386 36,000  Level Houston Center
08:32AM 31.5225 -91.7214 249° West 318 366 36,000  Level Houston Center
08:33AM 31.4894 -91.8178 248° West 318 366 36,000  Level Houston Center
08:34AM 31.4572 -91.9150 249° West 321 369 36,000  Level Houston Center
08:35AM 31.4242 -92.0131 248° West 323 372 36,000  Level Houston Center
08:36AM 31.3839 -92.1186 246° West 332 382 36,000 -60 Level Houston Center
08:37AM 31.3494 -92.2206 248° West 336 387 35,900  Descending Houston Center
08:38AM 31.3161 -92.3236 249° West 339 390 36,000  Climbing Houston Center
08:39AM 31.2806 -92.4264 248° West 342 394 36,000 -60 Level Houston Center
08:40AM 31.2428 -92.5297 247° West 345 397 35,900  Descending Houston Center
08:41AM 31.1806 -92.6353 235° Southwest 330 380 36,000  Climbing Houston Center
08:42AM 31.1325 -92.7217 237° Southwest 318 366 36,000 -60 Level Houston Center
08:43AM 31.0869 -92.8036 237° Southwest 303 349 35,900  Descending Houston Center
08:44AM 31.0417 -92.8842 237° Southwest 298 343 36,000  Climbing Houston Center
08:45AM 30.9942 -92.9675 236° Southwest 306 352 36,000 -60 Level Houston Center
08:46AM 30.9461 -93.0528 237° Southwest 315 362 35,900 -300 Descending Houston Center
08:47AM 30.8969 -93.1408 237° Southwest 323 372 35,400 -1,620 Descending Houston Center
08:48AM 30.8458 -93.2328 237° Southwest 334 384 32,600 -3,000 Descending Houston Center
08:49AM 30.7842 -93.3419 237° Southwest 338 389 29,300 -3,000 Descending Houston Center
08:50AM 30.7311 -93.4350 236° Southwest 345 397 26,500 -2,700 Descending Houston Center
08:51AM 30.6775 -93.5292 237° Southwest 349 402 23,800 -2,760 Descending Houston Center
08:52AM 30.6236 -93.6233 236° Southwest 354 407 21,000 -2,760 Descending Houston Center
08:53AM 30.5708 -93.7164 237° Southwest 350 403 18,200 -2,580 Descending Houston Center
08:54AM 30.5208 -93.8031 236° Southwest 331 381 15,800 -1,800 Descending Houston Center
08:55AM 30.4775 -93.8800 237° Southwest 292 336 14,600 -1,200 Descending Houston Center
08:56AM 30.4244 -93.9717 236° Southwest 288 331 13,400 -1,080 Descending Houston Center
08:57AM 30.3781 -94.0525 236° Southwest 300 345 12,400 -1,080 Descending Houston Center
08:58AM 30.3575 -94.0867 235° Southwest 300 345 11,900 -540 Descending Houston Center
08:58AM 30.3364 -94.1253 238° Southwest 270 311 11,900 60 Level Houston Center
08:59AM 30.3183 -94.1550 235° Southwest 254 292 12,000  Climbing Houston Center
08:59AM 30.2944 -94.1956 236° Southwest 264 304 11,900  Descending Houston Center
09:00AM 30.2767 -94.2233 233° Southwest 267 307 12,000  Climbing Houston Center
09:00AM 30.2519 -94.2694 238° Southwest 273 314 11,900  Descending Houston Center
09:01AM 30.2319 -94.3019 235° Southwest 283 326 12,000  Climbing Houston Center
09:01AM 30.2075 -94.3461 237° Southwest 283 326 11,900  Descending Houston Center
09:02AM 30.1861 -94.3903 241° Southwest 285 328 12,000 -420 Climbing Houston Center
09:02AM 30.1717 -94.4239 244° Southwest 279 321 11,500 -1,200 Descending Houston Center
09:03AM 30.1533 -94.4622 241° Southwest 236 272 10,800 -1,560 Descending Houston Center
09:03AM 30.1417 -94.4908 245° Southwest 249 287 9,900 -1,920 Descending Houston Center
09:04AM 30.1242 -94.5289 242° Southwest 240 276 8,900 -1,920 Descending Houston Center
09:04AM 30.1042 -94.5725 242° Southwest 241 277 8,000 -1,020 Descending Houston Center
09:05AM 30.0947 -94.5931 242° Southwest 235 270 8,000 -1,020 Level Houston Center
09:05AM 30.0781 -94.6369 246° West 228 262 7,000 -1,680 Descending Houston Center
09:06AM 30.0739 -94.6611 259° West 230 265 6,300 -1,980 Descending Houston Center
09:06AM 30.0617 -94.7103 254° West 233 268 5,000 -1,200 Descending Houston Center
09:07AM 30.0544 -94.7433 256° West 245 282 5,000 -120 Level Houston Center
09:07AM 30.0444 -94.7864 255° West 244 281 4,900  Descending Houston Center
09:08AM 30.0347 -94.8206 252° West 240 276 5,000  Climbing Houston Center
09:08AM 30.0269 -94.8567 256° West 231 266 4,900  Descending Houston Center
09:09AM 30.0183 -94.8925 254° West 236 272 5,000  Climbing Houston Center
09:10AM 30.0103 -94.9297 256° West 235 270 4,900  Descending Houston Center
09:10AM 30.0033 -94.9550 252° West 208 239 5,000  Climbing Houston Center
09:11AM 29.9956 -94.9936 257° West 210 242 4,900 -360 Descending Houston Center
09:12AM 29.9944 -95.0769 269° West 214 246 4,400 -600 Descending Houston Center
09:12AM 29.9939 -95.1008 268° West 214 246 4,100 -1,200 Descending Houston Center
09:13AM 29.9939 -95.1481 270° West 219 252 3,200 -1,200 Descending Houston Center
09:13AM 29.9922 -95.1733 266° West 202 232 2,900 -960 Descending Houston Center